Terminal Aerodrome Forecast
Issued by NWS Anchorage, AK

Home | Current Version | Previous Version | Text Only | Print | Product List | Glossary On
Versions: 1 2 3 4 5 6 7 8 9 10 11 12 13 14 15 16 17 18 19 20 21 22 23 24 25 26 27 28 29 30 31 32 33 34 35 36 37 38 39 40 41 42 43 44 45 46 47 48 49 50
000
FTAK31 PANC 051138
TAFANC
TAF
PANC 051138Z 0512/0618 00000KT 1/2SM FG BKN003 OVC050
      TEMPO 0512/0516 1/4SM FG VV003
     FM052000 VRB03KT 3SM BR SCT005 BKN050
     FM052200 VRB03KT P6SM FEW003 BKN050
     FM060500 18006KT 3SM -SN BR OVC025
     FM060900 VRB04KT 2SM -SN OVC015=

USA.gov is the U.S. government's official web portal to all federal, state and local government web resources and services.